Airfield :
LOGIN :

Register | Disclaimer

   EN    FR    IT 

 










Legend :    VFR   Marginal VFR   IFR   Intensive IFR   Very Intensive IFR
Visi :
Ceiling :
>= 8 km
>= 3000ft
5 to 8 km
1000 to 3000 ft
1500m to 5 km
500 to 1000 ft
800 to 1500m
200 to 500 ft
< 800m
< 200 ft
Symbols :   Thunderstorms  Fog  Heavy snow  Heavy precipitations  Wind > 20 kt
SIGMETs :     Misc.  Thunderstorms  Icing  Turbulence  Mountain Waves  Volcanic Ashes







- Airport Elevation : 147 ft
- IATA code : DUS


EDDL - Düsseldorf Int.

CURRENT METAR :
  • 180450Z VRB01KT CAVOK 15/12 Q1018 NOSIG

EXPIRED METARs :
  • 180420Z VRB01KT CAVOK 13/11 Q1018 NOSIG
  • 180350Z VRB01KT CAVOK 12/10 Q1018 NOSIG
  • 180320Z 00000KT CAVOK 12/10 Q1018 NOSIG
  • 180250Z VRB01KT CAVOK 12/10 Q1018 NOSIG
  • 180220Z VRB01KT CAVOK 12/11 Q1018 NOSIG

TAF TAF EDDL
Valid from the 18 at 00:00 until the 19 at 06:00 UTC


172300Z 1800/1906 VRB03KT CAVOK
TEMPO 1800/1802 33006KT
BECMG 1808/1811 28005KT
TEMPO 1815/1820 34007KT
BECMG 1820/1823 VRB03KT
No reported NOTAMs for that airfield.



MET'MAP, your aeronautical weather chart ! - Copyright ORBIFLY December 2007 - Disclaimer

ORBIFLY MET'MAP TEAM :

Programming & Development : Alexandra Zaïnal
Concept & Development : Baudouin d'Aumeries
Co-Development & Prog : Marc-Olivier Méhu
Technical & hardware support : Manuel Goepfert

Contact : metmap@orbifly.com




SOURCES & CREDITS :

   NOAA